Hourly Data Report for June 25, 2017

BORDEN AWOS
ONTARIO

44°16'20.000" N
79°54'42.000" W
222.50 m
611B002
71534
YBN

Download Data

Hourly Data (June 2017)
Hourly Data Report for June 25, 2017
TIME
LST
Temp Definition
°C
Dew Point Definition
°C
Rel Hum Definition
%
Precip. Amount Definition
mm

Wind Dir Definition
10's deg

Wind Spd Definition
km/h
Visibility Definition
km
Stn Press Definition
kPa
Hmdx Definition


Wind Chill Definition


Weather Definition


00:00 11.2 11.0 99     0 14.5 98.70     LegendNANA
01:00 10.7 10.4 98   22 6 14.5 98.69     LegendNANA
02:00 10.8 10.8 100     0 14.5 98.65     LegendNANA
03:00 10.3 10.1 99   9 6 14.5 98.64     LegendNANA
04:00 11.9 11.7 99     0 14.5 98.63     LegendNANA
05:00 13.3 13.0 98   21 7 14.5 98.66     LegendNANA
06:00 14.1 13.1 94   24 7 14.5 98.67     LegendNANA
07:00 16.2 13.5 84   24 7 14.5 98.66     LegendNANA
08:00
09:00 18.9 10.8 59   23 9 14.5 98.67     LegendNANA
10:00 19.7 9.1 50   25 20 14.5 98.64     LegendNANA
11:00 17.9 11.1 64   25 17 14.5 98.68     Rain
12:00 15.8 12.3 80   23 13 6.4 98.65     Heavy Rain
13:00 15.1 11.4 78   25 13 14.5 98.69     Rain
14:00 16.8 11.0 69   34 6 14.5 98.70     LegendNANA
15:00 17.2 10.6 65   29 7 14.5 98.70     LegendNANA
16:00 17.4 10.7 65   26 17 14.5 98.73     LegendNANA
17:00 18.4 10.2 59   30 19 14.5 98.74     LegendNANA
18:00 18.8 10.1 57   28 22 14.5 98.76     LegendNANA
19:00 17.7 10.6 63   29 9 14.5 98.79     LegendNANA
20:00 15.4 11.5 78   1 7 14.5 98.83     LegendNANA
21:00 13.0 11.5 91   1 4 14.5 98.86     LegendNANA
22:00 12.2 11.4 95     0 14.5 98.88     LegendNANA
23:00 10.6 10.5 99     0 14.5 98.87     LegendNANA

Notes on Data Quality.

Legend

  • E = Estimated
  • M = Missing
  • NA = Not Available*
  • [empty] = Indicates an unobserved value
Date modified: